[[{"header":{"parameterUnit":"m.s-1","parameterCategory":1,"la1":30.2991,"la2":30.254,"lo1":-89.0895,"lo2":-89.0444,"dy":0.0017,"dx":0.0017,"nx":28,"ny":28,"refTime":"2023-08-31T03:00:00:Z","depth":0,"parameterNumber":2,"parameterNumberName":"U-component_of_WINDS"},"data":[0,0,0,0,0,0,0,0,0,0,0,0,0,0,0,0,0,0,0,0,0,0,0,0,0,0,0,0,0,0,0,0,0,0,0,0,0,0,0,0,0,0,0,0,0,0,0,0,0,0,0,0,0,0,0,0,0,0,0.2544,0.2545,0,0.2623,0.2623,0.2624,0.2647,0.2647,0.2647,0.2646,0.2732,0.2734,0.2737,0,0,0,0,0,0,0,0,0,0,0,0,0,0.242,0.2422,0.2544,0.2545,0.2546,0.2622,0.2623,0.2625,0.2648,0.2647,0.2647,0.2646,0.2731,0.2734,0.2737,0,0,0,0,0,0,0,0,0,0,0,0,0,0.2484,0.2423,0.2544,0.2567,0.2569,0.2622,0.2624,0.2625,0.2648,0.2647,0.2646,0.2646,0.273,0.2734,0.2738,0.2775,0,0,0.275,0.2752,0,0,0,0,0,0,0,0,0.248,0.2488,0.2562,0.2565,0.2568,0.2624,0.2611,0.2675,0.2648,0.2618,0.2646,0.2645,0.2697,0.2704,0.272,0.2779,0.2783,0.275,0.2753,0.2754,0.2756,0,0,0,0,0,0,0,0.2476,0.2485,0.2575,0.2563,0.2567,0.2575,0.2583,0.2623,0.266,0.2621,0.2622,0.2631,0.2699,0.2716,0.2722,0.2784,0.275,0.2754,0.2756,0.2758,0.2879,0.288,0,0,0,0,0,0,0.2467,0.2481,0.2573,0.2578,0.2522,0.2577,0.2587,0.2607,0.266,0.2667,0.2632,0.2632,0.2709,0.2717,0.2725,0.2773,0.2754,0.2758,0.276,0.2878,0.2879,0.288,0,0,0,0,0,0,0.2464,0.2475,0.257,0.253,0.2543,0.258,0.2603,0.2609,0.2626,0.2668,0.2675,0.2642,0.2709,0.272,0.2762,0.2776,0.276,0.2764,0.2877,0.2879,0.288,0.2868,0,0,0,0,0,0,0.246,0.2473,0.2487,0.253,0.2545,0.2604,0.2604,0.2611,0.2633,0.2634,0.268,0.2687,0.271,0.2756,0.2766,0.2781,0.2767,0.2876,0.2878,0.2879,0.2867,0.2868,0.287,0,0,0,0,0,0.2456,0.2481,0.2487,0.2498,0.2562,0.2604,0.2613,0.2637,0.2634,0.2648,0.2675,0.2686,0.2773,0.276,0.2772,0.2788,0.2876,0.2877,0.2879,0.2867,0.2868,0.2869,0,0,0,0,0,0,0.244,0.2487,0.2494,0.2534,0.2565,0.2608,0.2627,0.2638,0.2671,0.2671,0.2701,0.2711,0.2752,0.2775,0.276,0.2828,0.2825,0.2829,0.2811,0.2813,0.2814,0.2808,0.277,0,0,0,0,0,0.2441,0.247,0.251,0.2542,0.2557,0.2589,0.2609,0.2624,0.2658,0.2672,0.2702,0.2736,0.2771,0.2793,0.2828,0.2871,0.2882,0.2888,0.2889,0.289,0.2893,0.2918,0.2922,0.2886,0.2886,0.2886,0,0,0.2444,0.2473,0.249,0.2539,0.2565,0.2596,0.26,0.2633,0.2656,0.2677,0.2719,0.2742,0.2782,0.2825,0.2846,0.2845,0.2905,0.2892,0.2892,0.2896,0.292,0.2924,0.2927,0.2887,0.2887,0.2887,0,0,0.2464,0.2489,0.2518,0.2543,0.2581,0.2603,0.261,0.2652,0.2667,0.2709,0.2726,0.2756,0.2815,0.2843,0.2865,0.2897,0.2908,0.2908,0.2914,0.2938,0.2941,0.2944,0.2955,0.2959,0.2911,0.2911,0.2911,0,0.2463,0.2508,0.2532,0.2563,0.2585,0.2604,0.2634,0.2659,0.2707,0.2723,0.2721,0.2797,0.2825,0.2875,0.2882,0.29,0.291,0.2902,0.2938,0.2941,0.2944,0.2956,0.296,0.2911,0.2911,0.2911,0.2911,0,0.2505,0.2537,0.2556,0.26,0.2625,0.2656,0.2685,0.2708,0.2721,0.2744,0.2787,0.2822,0.2864,0.2877,0.2891,0.2929,0.2928,0.2932,0.293,0.2947,0.2958,0.2963,0.291,0.291,0.291,0.2911,0,0,0.2517,0.2574,0.2581,0.2601,0.2645,0.2671,0.2704,0.2743,0.2762,0.2795,0.2824,0.2874,0.2879,0.2904,0.2922,0.2943,0.2966,0.2945,0.2946,0.2947,0.3011,0.3007,0.3012,0.2974,0.2975,0.2976,0.3008,0,0.2543,0.26,0.2622,0.2669,0.27,0.2718,0.2747,0.2778,0.28,0.2831,0.2856,0.2891,0.2894,0.2909,0.2931,0.2958,0.2979,0.2957,0.3003,0.3004,0.2991,0.3018,0.3014,0.3042,0.3012,0.3013,0.3013,0,0.2581,0.2612,0.2662,0.2702,0.2716,0.2741,0.278,0.2808,0.2844,0.2859,0.2887,0.2904,0.294,0.2936,0.2988,0.2972,0.2992,0.3009,0.3011,0.3016,0.3009,0.3023,0.3052,0.3056,0.3021,0.302,0.302,0,0.2584,0.264,0.2677,0.2694,0.2742,0.2759,0.2781,0.2816,0.2839,0.2873,0.2889,0.2927,0.2949,0.2979,0.3007,0.3001,0.3056,0.3054,0.3071,0.307,0.3081,0.308,0.3113,0.3095,0.3095,0.3094,0.3094,0,0.2611,0.264,0.2679,0.2701,0.2736,0.2762,0.2796,0.2819,0.2851,0.288,0.2899,0.2926,0.2961,0.2993,0.3015,0.3055,0.3065,0.3079,0.3084,0.3077,0.3075,0.309,0.3089,0.3096,0.3095,0.3095,0.3095,0,0.262,0.2647,0.2689,0.2731,0.2742,0.2766,0.2803,0.2827,0.285,0.2886,0.2896,0.2933,0.2972,0.3002,0.3053,0.3068,0.311,0.3116,0.3097,0.31,0.3115,0.3113,0.3158,0.3166,0.3142,0.3143,0.3143,0,0.2635,0.2658,0.2703,0.2722,0.2743,0.2775,0.2798,0.2826,0.2849,0.2892,0.2911,0.2951,0.2984,0.3045,0.3078,0.3117,0.3124,0.3138,0.3131,0.3122,0.3125,0.3123,0.3126,0.3138,0.3138,0.3139,0.3139,0,0.2659,0.2671,0.2702,0.2738,0.2764,0.2795,0.2826,0.2841,0.2875,0.2901,0.2939,0.2965,0.3016,0.3056,0.3099,0.3123,0.3137,0.3141,0.3147,0.3139,0.3127,0.3134,0.3099,0.3139,0.3139,0.3139,0.3139,0.3139,0.2672,0.2693,0.2728,0.2762,0.2788,0.2816,0.284,0.2866,0.2899,0.2941,0.2957,0.2997,0.3034,0.3092,0.3117,0.315,0.3151,0.316,0.3162,0.3163,0.3162,0.3122,0.3158,0.3158,0.3158,0.3158,0.3158,0,0.2696,0.2719,0.2751,0.2792,0.282,0.2829,0.2864,0.2887,0.2921,0.2954,0.2986,0.3031,0.307,0.3105,0.3146,0.3166,0.3173,0.3176,0.3174,0.318,0.3159,0.315,0.3169,0.3169,0.3169,0.3169,0.3169,0.3169,0.2712,0.2749,0.2765,0.2816,0.2839,0.2877,0.2897,0.2924,0.295,0.2999,0.303,0.3053,0.3087,0.3131,0.3167,0.3177,0.3191,0.3191,0.3203,0.3183,0.3181,0.318,0.3171,0.3194,0.3194,0.3221,0.3221,0.3221]},{"header":{"parameterUnit":"m.s-1","parameterCategory":1,"la1":30.2991,"la2":30.254,"lo1":-89.0895,"lo2":-89.0444,"dy":0.0017,"dx":0.0017,"nx":28,"ny":28,"refTime":"2023-08-31T03:00:00:Z","depth":0,"parameterNumber":3,"parameterNumberName":"V-component_of_WINDS"},"data":[0,0,0,0,0,0,0,0,0,0,0,0,0,0,0,0,0,0,0,0,0,0,0,0,0,0,0,0,0,0,0,0,0,0,0,0,0,0,0,0,0,0,0,0,0,0,0,0,0,0,0,0,0,0,0,0,0,0,-1.2488,-1.2487,0,-1.2403,-1.2402,-1.2401,-1.2375,-1.2375,-1.2376,-1.2376,-1.2282,-1.2279,-1.2276,0,0,0,0,0,0,0,0,0,0,0,0,0,-1.2622,-1.2619,-1.2488,-1.2487,-1.2486,-1.2403,-1.2402,-1.24,-1.2375,-1.2375,-1.2376,-1.2377,-1.2283,-1.228,-1.2276,0,0,0,0,0,0,0,0,0,0,0,0,0,-1.2553,-1.2619,-1.2488,-1.2463,-1.246,-1.2403,-1.2402,-1.24,-1.2375,-1.2375,-1.2376,-1.2377,-1.2284,-1.228,-1.2276,-1.2235,0,0,-1.2262,-1.226,0,0,0,0,0,0,0,0,-1.2557,-1.2548,-1.2468,-1.2465,-1.2461,-1.24,-1.2414,-1.2345,-1.2375,-1.2407,-1.2376,-1.2377,-1.232,-1.2313,-1.2295,-1.2231,-1.2227,-1.2262,-1.2259,-1.2257,-1.2256,0,0,0,0,0,0,0,-1.2561,-1.2551,-1.2454,-1.2467,-1.2462,-1.2454,-1.2445,-1.2401,-1.2361,-1.2404,-1.2402,-1.2393,-1.2319,-1.23,-1.2293,-1.2225,-1.2262,-1.2258,-1.2255,-1.2254,-1.2124,-1.2123,0,0,0,0,0,0,-1.2571,-1.2555,-1.2456,-1.2451,-1.2512,-1.2451,-1.2441,-1.2419,-1.2361,-1.2353,-1.2392,-1.2392,-1.2307,-1.2298,-1.229,-1.2239,-1.2257,-1.2253,-1.2251,-1.2125,-1.2124,-1.2123,0,0,0,0,0,0,-1.2574,-1.2563,-1.246,-1.2503,-1.2489,-1.2448,-1.2424,-1.2417,-1.2398,-1.2352,-1.2344,-1.2381,-1.2307,-1.2296,-1.225,-1.2235,-1.2251,-1.2247,-1.2126,-1.2124,-1.2123,-1.2137,0,0,0,0,0,0,-1.2578,-1.2564,-1.255,-1.2503,-1.2487,-1.2423,-1.2423,-1.2415,-1.2391,-1.239,-1.2339,-1.2332,-1.2307,-1.2256,-1.2245,-1.223,-1.2244,-1.2127,-1.2125,-1.2124,-1.2138,-1.2137,-1.2136,0,0,0,0,0,-1.2583,-1.2555,-1.2549,-1.2537,-1.2468,-1.2422,-1.2413,-1.2387,-1.239,-1.2375,-1.2345,-1.2333,-1.2239,-1.2252,-1.2239,-1.2222,-1.2127,-1.2126,-1.2124,-1.2138,-1.2137,-1.2136,0,0,0,0,0,0,-1.2598,-1.2548,-1.2541,-1.2497,-1.2465,-1.2418,-1.2397,-1.2386,-1.235,-1.235,-1.2317,-1.2306,-1.2262,-1.2237,-1.2252,-1.218,-1.2183,-1.2178,-1.2198,-1.2196,-1.2195,-1.2202,-1.224,0,0,0,0,0,-1.2597,-1.2566,-1.2523,-1.2489,-1.2473,-1.2438,-1.2417,-1.24,-1.2364,-1.2349,-1.2317,-1.228,-1.2242,-1.2218,-1.218,-1.2134,-1.2123,-1.2116,-1.2115,-1.2115,-1.2111,-1.2085,-1.2082,-1.2117,-1.2117,-1.2117,0,0,-1.2593,-1.2562,-1.2544,-1.2491,-1.2464,-1.2431,-1.2426,-1.2391,-1.2366,-1.2343,-1.2298,-1.2273,-1.223,-1.2184,-1.2162,-1.2162,-1.2099,-1.2112,-1.2112,-1.2109,-1.2083,-1.208,-1.2077,-1.2116,-1.2116,-1.2116,0,0,-1.2569,-1.2543,-1.2512,-1.2485,-1.2445,-1.2422,-1.2415,-1.2371,-1.2354,-1.2309,-1.2292,-1.226,-1.2196,-1.2166,-1.2143,-1.211,-1.2097,-1.2098,-1.2092,-1.2067,-1.2065,-1.2062,-1.205,-1.2047,-1.2095,-1.2095,-1.2095,0,-1.2568,-1.252,-1.2496,-1.2463,-1.244,-1.2421,-1.2389,-1.2363,-1.2311,-1.2295,-1.2297,-1.2217,-1.2186,-1.2133,-1.2126,-1.2107,-1.2097,-1.2103,-1.2067,-1.2064,-1.2062,-1.205,-1.2046,-1.2095,-1.2095,-1.2095,-1.2095,0,-1.2522,-1.2488,-1.2468,-1.2422,-1.2397,-1.2364,-1.2333,-1.231,-1.2296,-1.2273,-1.2227,-1.2191,-1.2146,-1.2132,-1.2117,-1.2077,-1.2079,-1.2074,-1.2076,-1.2059,-1.2048,-1.2043,-1.2096,-1.2096,-1.2095,-1.2095,0,0,-1.2504,-1.2447,-1.244,-1.2419,-1.2374,-1.2347,-1.2313,-1.2272,-1.2253,-1.2218,-1.2188,-1.2135,-1.2131,-1.2105,-1.2086,-1.2064,-1.2041,-1.2062,-1.206,-1.206,-1.1996,-1.2,-1.1995,-1.2033,-1.2032,-1.2031,-1.1999,0,-1.2474,-1.2415,-1.2394,-1.2344,-1.2313,-1.2295,-1.2266,-1.2234,-1.2212,-1.218,-1.2155,-1.2118,-1.2115,-1.2099,-1.2077,-1.2049,-1.2028,-1.2051,-1.2003,-1.2002,-1.2015,-1.1989,-1.1992,-1.1964,-1.1995,-1.1994,-1.1993,0,-1.2431,-1.24,-1.2349,-1.2309,-1.2295,-1.2269,-1.223,-1.2201,-1.2164,-1.215,-1.2121,-1.2104,-1.2067,-1.2072,-1.2019,-1.2035,-1.2015,-1.1998,-1.1996,-1.199,-1.1996,-1.1982,-1.1954,-1.195,-1.1986,-1.1987,-1.1987,0,-1.2424,-1.2368,-1.233,-1.2313,-1.2266,-1.2248,-1.2227,-1.2191,-1.2169,-1.2134,-1.2119,-1.2079,-1.2058,-1.2027,-1.1999,-1.2006,-1.1949,-1.1952,-1.1935,-1.1936,-1.1923,-1.1924,-1.1892,-1.1911,-1.1911,-1.1911,-1.1911,0,-1.2393,-1.2362,-1.2327,-1.2304,-1.2268,-1.2243,-1.2208,-1.2186,-1.2155,-1.2126,-1.2107,-1.2079,-1.2045,-1.2013,-1.1991,-1.1951,-1.1941,-1.1927,-1.1922,-1.1929,-1.1931,-1.1914,-1.1916,-1.191,-1.191,-1.191,-1.191,0,-1.2378,-1.2353,-1.2311,-1.2271,-1.226,-1.2236,-1.22,-1.2176,-1.2154,-1.2118,-1.2108,-1.2072,-1.2033,-1.2003,-1.1952,-1.1937,-1.1895,-1.1889,-1.1908,-1.1905,-1.1891,-1.1893,-1.1846,-1.1839,-1.1863,-1.1863,-1.1862,0,-1.236,-1.2337,-1.2295,-1.2276,-1.2256,-1.2224,-1.2202,-1.2176,-1.2153,-1.211,-1.2091,-1.2052,-1.2019,-1.1959,-1.1927,-1.1888,-1.1881,-1.1867,-1.1874,-1.1883,-1.188,-1.1882,-1.188,-1.1866,-1.1866,-1.1866,-1.1866,0,-1.2331,-1.2321,-1.229,-1.2256,-1.223,-1.2201,-1.2171,-1.2156,-1.2124,-1.2099,-1.2061,-1.2036,-1.1986,-1.1947,-1.1905,-1.1881,-1.1868,-1.1864,-1.1858,-1.1865,-1.1877,-1.1871,-1.1906,-1.1865,-1.1865,-1.1865,-1.1865,-1.1865,-1.2314,-1.2293,-1.2261,-1.2228,-1.2203,-1.2176,-1.2153,-1.2129,-1.2097,-1.2056,-1.2042,-1.2003,-1.1967,-1.191,-1.1886,-1.1854,-1.1853,-1.1845,-1.1842,-1.1841,-1.1842,-1.1883,-1.1846,-1.1846,-1.1846,-1.1846,-1.1846,0,-1.2284,-1.2263,-1.2233,-1.2194,-1.2168,-1.216,-1.2127,-1.2105,-1.2072,-1.2041,-1.201,-1.1967,-1.1929,-1.1896,-1.1856,-1.1837,-1.183,-1.1828,-1.1829,-1.1824,-1.1844,-1.1854,-1.1834,-1.1834,-1.1834,-1.1834,-1.1834,-1.1834,-1.2266,-1.223,-1.2215,-1.2167,-1.2145,-1.2109,-1.2091,-1.2065,-1.2041,-1.1994,-1.1964,-1.1943,-1.1911,-1.1869,-1.1835,-1.1826,-1.1812,-1.1811,-1.18,-1.182,-1.1822,-1.1823,-1.1832,-1.1808,-1.1808,-1.1782,-1.1782,-1.1782]}]]